Location: Warszawa
(52.2500°N, 21.0000°E)
Time: 15:44:22
(UTC+01:00)

SR - All Passes

Search period start: 27 January 2023 00:00
Search period end: 06 February 2023 00:00
Orbit: 581 x 870 km, 66.7° (Epoch: 26 January)

Date Brightness Start Highest point End Pass type
(mag) Time Alt. Az. Time Alt. Az. Time Alt. Az.
27 Jan - 00:11:27 10° NW 00:15:52 88° SW 00:20:06 10° SE night (unlit)
27 Jan - 01:55:01 10° WNW 01:57:05 13° WSW 01:59:08 10° SW night (unlit)
27 Jan - 14:47:38 10° SSE 14:50:59 18° ESE 14:54:13 10° ENE daylight
27 Jan - 16:27:17 10° SW 16:32:28 89° SE 16:37:13 10° NE daylight
27 Jan - 18:10:54 10° W 18:15:00 25° NNW 18:18:52 10° NNE visible
27 Jan - 19:56:10 10° NW 19:58:33 14° N 20:00:52 10° NNE visible
27 Jan - 21:39:18 10° NNW 21:42:21 17° NNE 21:45:17 10° ENE visible
27 Jan - 23:21:01 10° NNW 23:25:21 51° NE 23:29:30 10° ESE night (unlit)
28 Jan - 01:03:26 10° WNW 01:07:02 26° WSW 01:10:33 10° S night (unlit)
28 Jan - 15:37:03 10° SSW 15:42:04 51° ESE 15:46:41 10° NE daylight
28 Jan - 17:19:33 10° WSW 17:24:13 37° NW 17:28:33 10° NNE visible
28 Jan - 19:04:36 10° NW 19:07:27 16° NNW 19:10:14 10° NNE visible
28 Jan - 20:48:47 10° NNW 20:51:17 14° N 20:53:44 10° NE visible
28 Jan - 22:30:40 10° NNW 22:34:40 31° NE 22:38:30 10° E night (unlit)
29 Jan - 00:12:36 10° NW 00:16:50 50° WSW 00:20:55 10° SSE night (unlit)
29 Jan - 14:47:23 10° S 14:51:47 29° ESE 14:55:55 10° ENE daylight
29 Jan - 16:28:32 10° SW 16:33:34 59° NW 16:38:13 10° NE daylight
29 Jan - 18:12:55 10° WNW 18:16:27 19° NNW 18:19:48 10° NNE visible
29 Jan - 19:57:56 10° NNW 20:00:11 13° N 20:02:21 10° NNE visible
29 Jan - 21:40:19 10° NNW 21:43:49 22° NNE 21:47:12 10° E visible
29 Jan - 23:22:03 10° NW 23:26:27 85° NE 23:30:42 10° SE night (unlit)
30 Jan - 01:05:20 10° WNW 01:07:45 15° WSW 01:10:08 10° SW night (unlit)
30 Jan - 13:58:38 10° SE 14:01:40 16° ESE 14:04:34 10° ENE daylight
30 Jan - 15:37:55 10° SW 15:43:04 83° SE 15:47:48 10° NE daylight
30 Jan - 17:21:22 10° W 17:25:33 26° NNW 17:29:28 10° NNE visible
30 Jan - 19:06:38 10° NW 19:09:02 14° N 19:11:23 10° NNE visible
30 Jan - 20:49:56 10° NNW 20:52:51 17° NNE 20:55:40 10° ENE visible
30 Jan - 22:31:38 10° NNW 22:35:54 47° NE 22:40:01 10° ESE night (unlit)
31 Jan - 00:13:57 10° NW 00:17:40 29° WSW 00:21:19 10° S night (unlit)
31 Jan - 14:47:46 10° SSW 14:52:41 46° ESE 14:57:14 10° NE daylight
31 Jan - 16:30:04 10° WSW 16:34:46 39° NW 16:39:09 10° NNE daylight
31 Jan - 18:15:02 10° NW 18:17:57 16° NNW 18:20:46 10° NNE visible
31 Jan - 19:59:22 10° NNW 20:01:47 14° N 20:04:07 10° NE visible
31 Jan - 21:41:17 10° NNW 21:45:11 29° NE 21:48:58 10° E visible
31 Jan - 23:23:10 10° NW 23:27:26 56° WSW 23:31:34 10° SSE night (unlit)
01 Feb - 13:58:13 10° S 14:02:26 26° ESE 14:06:23 10° ENE daylight
01 Feb - 15:39:07 10° SW 15:44:09 64° NW 15:48:48 10° NE daylight
01 Feb - 17:23:22 10° WNW 17:26:57 20° NNW 17:30:22 10° NNE visible
01 Feb - 19:08:28 10° NNW 19:10:39 13° N 19:12:47 10° NNE visible
01 Feb - 20:50:56 10° NNW 20:54:20 21° NNE 20:57:36 10° ENE visible
01 Feb - 22:32:38 10° NW 22:37:02 77° NE 22:41:16 10° SE night (unlit)
02 Feb - 00:15:41 10° WNW 00:18:24 16° WSW 00:21:04 10° SSW night (unlit)
02 Feb - 13:09:41 10° SE 13:12:19 14° ESE 13:14:51 10° ENE daylight
02 Feb - 14:48:33 10° SSW 14:53:39 76° SE 14:58:21 10° NE daylight
02 Feb - 16:31:50 10° W 16:36:04 28° NNW 16:40:03 10° NNE daylight
02 Feb - 18:17:06 10° NW 18:19:32 14° N 18:21:52 10° NNE visible
02 Feb - 20:00:32 10° NNW 20:03:20 16° NNE 20:06:03 10° NE visible
02 Feb - 21:42:14 10° NNW 21:46:27 43° NE 21:50:30 10° ESE visible
02 Feb - 23:24:27 10° NW 23:28:17 32° WSW 23:32:02 10° S night (unlit)
03 Feb - 13:58:28 10° S 14:03:17 42° ESE 14:07:45 10° NE daylight
03 Feb - 15:40:35 10° WSW 15:45:19 42° NW 15:49:43 10° NNE daylight
03 Feb - 17:25:27 10° WNW 17:28:26 16° NNW 17:31:18 10° NNE visible
03 Feb - 19:09:56 10° NNW 19:12:15 14° N 19:14:30 10° NE visible
03 Feb - 20:51:53 10° NNW 20:55:42 28° NNE 20:59:23 10° E visible
03 Feb - 22:33:43 10° NW 22:38:01 62° SW 22:42:11 10° SSE night (unlit)
04 Feb - 13:09:02 10° SSE 13:13:03 24° ESE 13:16:50 10° ENE daylight
04 Feb - 14:49:40 10° SW 14:54:43 69° NW 14:59:21 10° NE daylight
04 Feb - 16:33:47 10° WNW 16:37:26 21° NNW 16:40:56 10° NNE daylight
04 Feb - 18:18:57 10° NNW 18:21:07 13° N 18:23:12 10° NNE visible
04 Feb - 20:01:32 10° NNW 20:04:49 20° NNE 20:07:59 10° ENE visible
04 Feb - 21:43:13 10° NW 21:47:34 70° NE 21:51:48 10° SE visible
04 Feb - 23:26:04 10° WNW 23:29:01 18° WSW 23:31:56 10° SSW night (unlit)
05 Feb - 12:20:49 10° SE 12:22:57 13° ESE 12:25:02 10° E daylight
05 Feb - 13:59:10 10° SSW 14:04:14 70° SE 14:08:53 10° NE daylight
05 Feb - 15:42:17 10° W 15:46:35 29° NW 15:50:36 10° NNE daylight
05 Feb - 17:27:31 10° NW 17:29:59 14° N 17:32:22 10° NNE visible
05 Feb - 19:11:07 10° NNW 19:13:47 15° NNE 19:16:24 10° NE visible
05 Feb - 20:52:49 10° NNW 20:56:58 40° NE 21:00:58 10° ESE visible
05 Feb - 22:34:57 10° NW 22:38:52 35° WSW 22:42:44 10° S night (unlit)
